Location: Newark
(48.4472°N, 1.4892°E)
Time: 14:16:39
(UTC+00:00)

Transit 4A - Pass Details

Date: 22 November 2019
Orbit: 870 x 975 km, 66.8° (Epoch: 11 December)

Event Time Altitude Azimuth Distance (km) Brightness Sun altitude
Exits shadow 02:19:27 10° 38° (NE) 2,555 10.6 -47.3°
Drops below altitude 10° 02:19:34 10° 39° (NE) 2,575 10.7 -47.3°
Sets 02:23:27 0° 64° (ENE) 3,487 11.6 -46.7°
